Time,TemperatureF,DewpointF,PressureIn,WindDirection,WindDirectionDegrees,WindSpeedMPH,WindSpeedGustMPH,Humidity,HourlyPrecipIn,Conditions,Clouds,dailyrainin,SolarRadiationWatts/m^2,SoftwareType,DateUTC
2013-06-19 00:02:00,68.0,59.0,30.01,ENE,70,2.0,12.0,72,0.00,,,0.00,0.000000,,2013-06-19 04:02:00,
2013-06-19 00:11:00,67.0,58.0,30.02,ENE,71,3.0,9.0,72,0.00,,,0.00,0.000000,,2013-06-19 04:11:00,
2013-06-19 00:22:00,67.0,58.0,30.02,ENE,71,3.0,9.0,72,0.00,,,0.00,0.000000,,2013-06-19 04:22:00,
2013-06-19 00:32:00,67.0,58.0,30.02,ENE,71,3.0,9.0,72,0.00,,,0.00,0.000000,,2013-06-19 04:32:00,
2013-06-19 00:42:00,67.0,58.0,30.02,ENE,71,3.0,9.0,72,0.00,,,0.00,0.000000,,2013-06-19 04:42:00,
2013-06-19 01:11:00,67.0,58.0,30.03,East,83,0.0,10.0,74,0.00,,,0.00,0.000000,,2013-06-19 05:11:00,
2013-06-19 01:23:00,67.0,58.0,30.03,East,83,0.0,10.0,74,0.00,,,0.00,0.000000,,2013-06-19 05:23:00,
2013-06-19 01:32:00,64.0,57.0,30.03,East,88,0.0,4.0,79,0.00,,,0.00,0.000000,,2013-06-19 05:32:00,
2013-06-19 01:43:00,64.0,57.0,30.03,East,88,0.0,4.0,79,0.00,,,0.00,0.000000,,2013-06-19 05:43:00,
2013-06-19 01:52:00,64.0,58.0,30.03,East,87,5.0,9.0,81,0.00,,,0.00,0.000000,,2013-06-19 05:52:00,
2013-06-19 02:02:00,64.0,58.0,30.03,East,87,5.0,9.0,81,0.00,,,0.00,0.000000,,2013-06-19 06:02:00,
2013-06-19 02:11:00,63.0,57.0,30.03,East,93,1.0,7.0,82,0.00,,,0.00,0.000000,,2013-06-19 06:11:00,
2013-06-19 02:22:00,63.0,58.0,30.03,East,91,0.0,9.0,83,0.00,,,0.00,0.000000,,2013-06-19 06:22:00,
2013-06-19 02:34:00,63.0,58.0,30.03,East,91,0.0,9.0,83,0.00,,,0.00,0.000000,,2013-06-19 06:34:00,
2013-06-19 02:42:00,62.0,57.0,30.03,East,91,0.0,7.0,84,0.00,,,0.00,0.000000,,2013-06-19 06:42:00,
2013-06-19 02:52:00,62.0,57.0,30.04,East,88,6.0,11.0,83,0.00,,,0.00,0.000000,,2013-06-19 06:52:00,
2013-06-19 03:01:00,62.0,57.0,30.04,East,88,6.0,11.0,83,0.00,,,0.00,0.000000,,2013-06-19 07:01:00,
2013-06-19 03:11:00,62.0,56.0,30.04,East,91,4.0,10.0,82,0.00,,,0.00,0.000000,,2013-06-19 07:11:00,
2013-06-19 03:22:00,62.0,56.0,30.04,East,80,0.0,4.0,82,0.00,,,0.00,0.000000,,2013-06-19 07:22:00,
2013-06-19 03:33:00,61.0,56.0,30.04,ENE,76,1.0,5.0,84,0.00,,,0.00,0.000000,,2013-06-19 07:33:00,
2013-06-19 03:43:00,61.0,56.0,30.04,ENE,76,1.0,5.0,84,0.00,,,0.00,0.000000,,2013-06-19 07:43:00,
2013-06-19 03:53:00,61.0,57.0,30.05,ENE,75,0.0,0.0,86,0.00,,,0.00,0.000000,,2013-06-19 07:53:00,
2013-06-19 04:02:00,60.0,56.0,30.05,ENE,71,0.0,0.0,86,0.00,,,0.00,0.000000,,2013-06-19 08:02:00,
2013-06-19 04:11:00,60.0,56.0,30.05,ENE,71,0.0,0.0,86,0.00,,,0.00,0.000000,,2013-06-19 08:11:00,
2013-06-19 04:22:00,60.0,56.0,30.05,ENE,71,0.0,1.0,87,0.00,,,0.00,0.000000,,2013-06-19 08:22:00,
2013-06-19 04:33:00,60.0,56.0,30.05,ENE,71,0.0,1.0,87,0.00,,,0.00,0.000000,,2013-06-19 08:33:00,
2013-06-19 04:43:00,59.0,55.0,30.05,ENE,74,0.0,0.0,87,0.00,,,0.00,0.000000,,2013-06-19 08:43:00,
2013-06-19 04:54:00,59.0,55.0,30.05,ENE,74,0.0,0.0,87,0.00,,,0.00,0.000000,,2013-06-19 08:54:00,
2013-06-19 05:02:00,59.0,55.0,30.05,ENE,74,0.0,0.0,87,0.00,,,0.00,0.000000,,2013-06-19 09:02:00,
2013-06-19 05:12:00,58.0,53.0,30.06,ENE,78,0.0,0.0,84,0.00,,,0.00,0.000000,,2013-06-19 09:12:00,
2013-06-19 05:22:00,58.0,53.0,30.06,ENE,77,0.0,0.0,82,0.00,,,0.00,0.000000,,2013-06-19 09:22:00,
2013-06-19 05:34:00,58.0,53.0,30.06,ENE,77,0.0,0.0,82,0.00,,,0.00,0.000000,,2013-06-19 09:34:00,
2013-06-19 05:43:00,58.0,52.0,30.06,ENE,72,0.0,3.0,81,0.00,,,0.00,0.000000,,2013-06-19 09:43:00,
2013-06-19 05:53:00,57.0,51.0,30.07,ENE,71,1.0,3.0,81,0.00,,,0.00,0.000000,,2013-06-19 09:53:00,
2013-06-19 06:02:00,57.0,51.0,30.08,ENE,70,0.0,0.0,81,0.00,,,0.00,0.000000,,2013-06-19 10:02:00,
2013-06-19 06:12:00,57.0,51.0,30.08,ENE,70,0.0,0.0,81,0.00,,,0.00,0.000000,,2013-06-19 10:12:00,
2013-06-19 06:22:00,57.0,52.0,30.08,ENE,70,0.0,0.0,82,0.00,,,0.00,0.000000,,2013-06-19 10:22:00,
2013-06-19 06:33:00,56.0,51.0,30.09,ENE,70,0.0,1.0,82,0.00,,,0.00,5.000000,,2013-06-19 10:33:00,
2013-06-19 06:42:00,56.0,51.0,30.09,ENE,70,0.0,1.0,82,0.00,,,0.00,5.000000,,2013-06-19 10:42:00,
2013-06-19 06:53:00,56.0,51.0,30.09,ENE,69,0.0,0.0,83,0.00,,,0.00,12.000000,,2013-06-19 10:53:00,
2013-06-19 07:02:00,56.0,51.0,30.09,ENE,69,0.0,0.0,83,0.00,,,0.00,12.000000,,2013-06-19 11:02:00,
2013-06-19 07:11:00,56.0,51.0,30.09,ENE,69,0.0,0.0,83,0.00,,,0.00,12.000000,,2013-06-19 11:11:00,
2013-06-19 07:22:00,56.0,51.0,30.10,ENE,71,0.0,0.0,84,0.00,,,0.00,40.000000,,2013-06-19 11:22:00,
2013-06-19 07:33:00,57.0,52.0,30.10,ENE,69,0.0,6.0,83,0.00,,,0.00,69.000000,,2013-06-19 11:33:00,
2013-06-19 07:43:00,57.0,52.0,30.10,ENE,69,0.0,6.0,83,0.00,,,0.00,69.000000,,2013-06-19 11:43:00,
2013-06-19 07:54:00,58.0,53.0,30.10,ENE,64,0.0,5.0,82,0.00,,,0.00,93.000000,,2013-06-19 11:54:00,
2013-06-19 08:02:00,58.0,52.0,30.10,ENE,63,2.0,6.0,81,0.00,,,0.00,137.000000,,2013-06-19 12:02:00,
2013-06-19 08:12:00,58.0,52.0,30.10,ENE,63,2.0,6.0,81,0.00,,,0.00,137.000000,,2013-06-19 12:12:00,
2013-06-19 08:22:00,59.0,52.0,30.11,ENE,64,2.0,9.0,79,0.00,,,0.00,74.000000,,2013-06-19 12:22:00,
2013-06-19 08:34:00,59.0,52.0,30.11,ENE,64,2.0,9.0,79,0.00,,,0.00,74.000000,,2013-06-19 12:34:00,
2013-06-19 08:44:00,59.0,52.0,30.11,NE,56,0.0,6.0,78,0.00,,,0.00,179.000000,,2013-06-19 12:44:00,
2013-06-19 08:53:00,60.0,52.0,30.11,East,80,0.0,7.0,76,0.00,,,0.00,209.000000,,2013-06-19 12:53:00,
2013-06-19 09:02:00,60.0,52.0,30.11,East,80,0.0,7.0,76,0.00,,,0.00,209.000000,,2013-06-19 13:02:00,
2013-06-19 09:12:00,61.0,52.0,30.12,ENE,65,4.0,10.0,71,0.00,,,0.00,225.000000,,2013-06-19 13:12:00,
2013-06-19 09:22:00,62.0,52.0,30.13,East,94,4.0,7.0,71,0.00,,,0.00,378.000000,,2013-06-19 13:22:00,
2013-06-19 09:33:00,62.0,52.0,30.13,East,94,4.0,7.0,71,0.00,,,0.00,378.000000,,2013-06-19 13:33:00,
2013-06-19 09:42:00,63.0,52.0,30.13,ENE,59,6.0,9.0,67,0.00,,,0.00,466.000000,,2013-06-19 13:42:00,
2013-06-19 09:54:00,63.0,52.0,30.13,ENE,78,1.0,6.0,68,0.00,,,0.00,512.000000,,2013-06-19 13:54:00,
2013-06-19 10:02:00,63.0,52.0,30.13,ENE,78,1.0,6.0,68,0.00,,,0.00,512.000000,,2013-06-19 14:02:00,
2013-06-19 10:12:00,64.0,54.0,30.14,East,80,0.0,10.0,69,0.00,,,0.00,540.000000,,2013-06-19 14:12:00,
2013-06-19 10:22:00,65.0,54.0,30.13,ESE,107,5.0,9.0,68,0.00,,,0.00,545.000000,,2013-06-19 14:22:00,
2013-06-19 10:33:00,65.0,54.0,30.13,ESE,107,5.0,9.0,68,0.00,,,0.00,545.000000,,2013-06-19 14:33:00,
2013-06-19 10:44:00,66.0,55.0,30.13,East,88,0.0,7.0,68,0.00,,,0.00,527.000000,,2013-06-19 14:44:00,
2013-06-19 10:53:00,66.0,54.0,30.13,NE,56,2.0,7.0,66,0.00,,,0.00,513.000000,,2013-06-19 14:53:00,
2013-06-19 11:01:00,67.0,56.0,30.12,ENE,64,0.0,6.0,67,0.00,,,0.00,540.000000,,2013-06-19 15:01:00,
2013-06-19 11:11:00,67.0,56.0,30.12,ENE,64,0.0,6.0,67,0.00,,,0.00,540.000000,,2013-06-19 15:11:00,
2013-06-19 11:22:00,68.0,57.0,30.13,East,82,4.0,12.0,69,0.00,,,0.00,603.000000,,2013-06-19 15:22:00,
2013-06-19 11:33:00,68.0,57.0,30.13,East,82,4.0,12.0,69,0.00,,,0.00,603.000000,,2013-06-19 15:33:00,
2013-06-19 11:42:00,69.0,55.0,30.13,ESE,108,0.0,10.0,62,0.00,,,0.00,663.000000,,2013-06-19 15:42:00,
2013-06-19 11:53:00,70.0,58.0,30.13,ESE,109,4.0,7.0,65,0.00,,,0.00,686.000000,,2013-06-19 15:53:00,
2013-06-19 12:01:00,70.0,58.0,30.13,ESE,109,4.0,7.0,65,0.00,,,0.00,686.000000,,2013-06-19 16:01:00,
2013-06-19 12:11:00,70.0,55.0,30.13,East,89,0.0,4.0,60,0.00,,,0.00,686.000000,,2013-06-19 16:11:00,
2013-06-19 12:22:00,71.0,57.0,30.13,ESE,115,0.0,7.0,61,0.00,,,0.00,636.000000,,2013-06-19 16:22:00,
2013-06-19 12:34:00,71.0,57.0,30.13,ESE,115,0.0,7.0,61,0.00,,,0.00,636.000000,,2013-06-19 16:34:00,
2013-06-19 12:43:00,72.0,60.0,30.12,ESE,121,0.0,9.0,65,0.00,,,0.00,603.000000,,2013-06-19 16:43:00,
2013-06-19 12:53:00,72.0,58.0,30.13,ESE,120,1.0,7.0,61,0.00,,,0.00,770.000000,,2013-06-19 16:53:00,
2013-06-19 13:02:00,72.0,58.0,30.13,ESE,120,1.0,7.0,61,0.00,,,0.00,770.000000,,2013-06-19 17:02:00,
2013-06-19 13:12:00,72.0,56.0,30.12,ENE,72,0.0,11.0,57,0.00,,,0.00,763.000000,,2013-06-19 17:12:00,
2013-06-19 13:22:00,72.0,56.0,30.11,ENE,65,4.0,9.0,57,0.00,,,0.00,770.000000,,2013-06-19 17:22:00,
2013-06-19 13:34:00,72.0,56.0,30.11,ENE,65,4.0,9.0,57,0.00,,,0.00,770.000000,,2013-06-19 17:34:00,
2013-06-19 13:43:00,72.0,56.0,30.11,NE,40,0.0,9.0,58,0.00,,,0.00,949.000000,,2013-06-19 17:43:00,
2013-06-19 13:53:00,73.0,58.0,30.11,East,98,0.0,9.0,59,0.00,,,0.00,986.000000,,2013-06-19 17:53:00,
2013-06-19 14:02:00,73.0,58.0,30.11,East,98,0.0,9.0,59,0.00,,,0.00,986.000000,,2013-06-19 18:02:00,
2013-06-19 14:12:00,74.0,57.0,30.11,East,83,0.0,7.0,56,0.00,,,0.00,990.000000,,2013-06-19 18:12:00,
2013-06-19 14:24:00,74.0,59.0,30.11,East,86,0.0,7.0,59,0.00,,,0.00,998.000000,,2013-06-19 18:24:00,
2013-06-19 14:33:00,74.0,59.0,30.11,East,86,0.0,7.0,59,0.00,,,0.00,998.000000,,2013-06-19 18:33:00,
2013-06-19 14:44:00,74.0,57.0,30.10,SSW,211,0.0,6.0,55,0.00,,,0.00,995.000000,,2013-06-19 18:44:00,
2013-06-19 14:53:00,75.0,59.0,30.10,ENE,61,0.0,9.0,58,0.00,,,0.00,977.000000,,2013-06-19 18:53:00,
2013-06-19 15:01:00,75.0,59.0,30.10,ENE,61,0.0,9.0,58,0.00,,,0.00,977.000000,,2013-06-19 19:01:00,
2013-06-19 15:12:00,74.0,56.0,30.10,NE,51,3.0,7.0,53,0.00,,,0.00,969.000000,,2013-06-19 19:12:00,
2013-06-19 15:22:00,75.0,55.0,30.09,NE,41,6.0,9.0,50,0.00,,,0.00,956.000000,,2013-06-19 19:22:00,
2013-06-19 15:32:00,75.0,55.0,30.09,NE,41,6.0,9.0,50,0.00,,,0.00,956.000000,,2013-06-19 19:32:00,
2013-06-19 15:43:00,75.0,56.0,30.09,NE,36,3.0,12.0,52,0.00,,,0.00,939.000000,,2013-06-19 19:43:00,
2013-06-19 15:53:00,76.0,57.0,30.09,NE,40,0.0,6.0,51,0.00,,,0.00,916.000000,,2013-06-19 19:53:00,
2013-06-19 16:02:00,76.0,57.0,30.09,NE,40,0.0,6.0,51,0.00,,,0.00,916.000000,,2013-06-19 20:02:00,
2013-06-19 16:11:00,76.0,57.0,30.09,NNE,18,2.0,7.0,51,0.00,,,0.00,886.000000,,2013-06-19 20:11:00,
2013-06-19 16:22:00,76.0,55.0,30.09,East,82,4.0,6.0,49,0.00,,,0.00,837.000000,,2013-06-19 20:22:00,
2013-06-19 16:33:00,76.0,55.0,30.09,East,82,4.0,6.0,49,0.00,,,0.00,837.000000,,2013-06-19 20:33:00,
2013-06-19 16:42:00,77.0,57.0,30.08,NNE,33,0.0,11.0,51,0.00,,,0.00,823.000000,,2013-06-19 20:42:00,
2013-06-19 16:52:00,77.0,56.0,30.08,NNE,24,3.0,11.0,49,0.00,,,0.00,795.000000,,2013-06-19 20:52:00,
2013-06-19 17:02:00,77.0,56.0,30.08,NNE,24,3.0,11.0,49,0.00,,,0.00,795.000000,,2013-06-19 21:02:00,
2013-06-19 17:12:00,78.0,58.0,30.08,NNE,18,0.0,0.0,50,0.00,,,0.00,768.000000,,2013-06-19 21:12:00,
2013-06-19 17:22:00,78.0,57.0,30.08,East,79,0.0,8.0,48,0.00,,,0.00,724.000000,,2013-06-19 21:22:00,
2013-06-19 17:33:00,78.0,57.0,30.08,East,79,0.0,8.0,48,0.00,,,0.00,724.000000,,2013-06-19 21:33:00,
2013-06-19 17:44:00,77.0,55.0,30.08,East,96,0.0,3.0,46,0.00,,,0.00,689.000000,,2013-06-19 21:44:00,
2013-06-19 17:52:00,77.0,57.0,30.07,SE,124,1.0,10.0,50,0.00,,,0.00,642.000000,,2013-06-19 21:52:00,
2013-06-19 18:02:00,77.0,57.0,30.07,SE,124,1.0,10.0,50,0.00,,,0.00,642.000000,,2013-06-19 22:02:00,
2013-06-19 18:11:00,77.0,56.0,30.06,East,80,1.0,10.0,49,0.00,,,0.00,603.000000,,2013-06-19 22:11:00,
2013-06-19 18:22:00,77.0,55.0,30.06,East,80,0.0,4.0,47,0.00,,,0.00,541.000000,,2013-06-19 22:22:00,
2013-06-19 18:34:00,77.0,55.0,30.06,East,80,0.0,4.0,47,0.00,,,0.00,541.000000,,2013-06-19 22:34:00,
2013-06-19 18:43:00,77.0,55.0,30.06,NE,44,4.0,5.0,47,0.00,,,0.00,499.000000,,2013-06-19 22:43:00,
2013-06-19 18:53:00,78.0,57.0,30.06,NE,40,0.0,6.0,49,0.00,,,0.00,459.000000,,2013-06-19 22:53:00,
2013-06-19 19:02:00,78.0,57.0,30.06,NE,40,0.0,6.0,49,0.00,,,0.00,459.000000,,2013-06-19 23:02:00,
2013-06-19 19:12:00,78.0,57.0,30.06,NE,40,0.0,0.0,49,0.00,,,0.00,403.000000,,2013-06-19 23:12:00,
2013-06-19 19:23:00,78.0,57.0,30.06,NE,40,0.0,0.0,48,0.00,,,0.00,357.000000,,2013-06-19 23:23:00,
2013-06-19 19:33:00,78.0,57.0,30.06,NE,40,0.0,0.0,48,0.00,,,0.00,357.000000,,2013-06-19 23:33:00,
2013-06-19 19:43:00,77.0,55.0,30.07,NE,40,0.0,0.0,47,0.00,,,0.00,309.000000,,2013-06-19 23:43:00,
2013-06-19 19:52:00,78.0,56.0,30.07,NE,40,0.0,0.0,47,0.00,,,0.00,258.000000,,2013-06-19 23:52:00,
2013-06-19 20:01:00,78.0,56.0,30.07,NE,40,0.0,0.0,47,0.00,,,0.00,207.000000,,2013-06-20 00:01:00,
2013-06-19 20:12:00,78.0,56.0,30.07,NE,40,0.0,0.0,47,0.00,,,0.00,207.000000,,2013-06-20 00:12:00,
2013-06-19 20:22:00,78.0,56.0,30.08,NE,40,0.0,0.0,47,0.00,,,0.00,148.000000,,2013-06-20 00:22:00,
2013-06-19 20:33:00,78.0,59.0,30.08,NE,40,0.0,0.0,52,0.00,,,0.00,98.000000,,2013-06-20 00:33:00,
2013-06-19 20:44:00,78.0,59.0,30.08,NE,40,0.0,0.0,52,0.00,,,0.00,98.000000,,2013-06-20 00:44:00,
2013-06-19 20:52:00,77.0,61.0,30.08,NE,40,0.0,0.0,57,0.00,,,0.00,53.000000,,2013-06-20 00:52:00,
2013-06-19 21:02:00,75.0,59.0,30.09,NE,40,0.0,0.0,58,0.00,,,0.00,26.000000,,2013-06-20 01:02:00,
2013-06-19 21:11:00,75.0,59.0,30.09,NE,40,0.0,0.0,58,0.00,,,0.00,26.000000,,2013-06-20 01:11:00,
2013-06-19 21:22:00,73.0,58.0,30.09,NE,40,0.0,0.0,59,0.00,,,0.00,12.000000,,2013-06-20 01:22:00,
2013-06-19 21:33:00,73.0,58.0,30.09,NE,40,0.0,0.0,59,0.00,,,0.00,12.000000,,2013-06-20 01:33:00,
2013-06-19 21:44:00,71.0,56.0,30.09,NE,40,0.0,0.0,60,0.00,,,0.00,5.000000,,2013-06-20 01:44:00,
2013-06-19 21:53:00,70.0,56.0,30.09,NE,40,0.0,0.0,62,0.00,,,0.00,0.000000,,2013-06-20 01:53:00,
2013-06-19 22:02:00,70.0,56.0,30.09,NE,40,0.0,0.0,62,0.00,,,0.00,0.000000,,2013-06-20 02:02:00,
2013-06-19 22:11:00,69.0,58.0,30.10,NE,40,0.0,0.0,67,0.00,,,0.00,0.000000,,2013-06-20 02:11:00,
2013-06-19 22:24:00,68.0,57.0,30.10,NE,40,0.0,0.0,67,0.00,,,0.00,0.000000,,2013-06-20 02:24:00,
2013-06-19 22:34:00,68.0,57.0,30.10,NE,40,0.0,0.0,67,0.00,,,0.00,0.000000,,2013-06-20 02:34:00,
2013-06-19 22:43:00,67.0,55.0,30.10,NE,40,0.0,0.0,66,0.00,,,0.00,0.000000,,2013-06-20 02:43:00,
2013-06-19 22:52:00,67.0,56.0,30.11,NE,40,0.0,0.0,67,0.00,,,0.00,0.000000,,2013-06-20 02:52:00,
2013-06-19 23:02:00,67.0,56.0,30.11,NE,40,0.0,0.0,68,0.00,,,0.00,0.000000,,2013-06-20 03:02:00,
2013-06-19 23:11:00,67.0,56.0,30.11,NE,40,0.0,0.0,68,0.00,,,0.00,0.000000,,2013-06-20 03:11:00,
2013-06-19 23:22:00,66.0,55.0,30.11,NE,40,0.0,3.0,68,0.00,,,0.00,0.000000,,2013-06-20 03:22:00,
2013-06-19 23:33:00,66.0,55.0,30.11,NE,40,0.0,0.0,68,0.00,,,0.00,0.000000,,2013-06-20 03:33:00,
2013-06-19 23:43:00,66.0,55.0,30.11,NE,40,0.0,0.0,68,0.00,,,0.00,0.000000,,2013-06-20 03:43:00,
2013-06-19 23:54:00,66.0,55.0,30.11,NE,40,0.0,3.0,67,0.00,,,0.00,0.000000,,2013-06-20 03:54:00,